Regional Weather Roundup
Issued by NWS Goodland, KS

Home | Current Version | Previous Version | Graphics & Text | Print | Product List | Glossary On
Versions: 1 2 3 4 5 6 7 8 9 10 11 12 13 14 15 16 17 18 19 20 21 22 23 24 25 26 27 28 29 30 31 32 33 34 35 36 37 38 39 40 41 42 43 44 45 46 47 48 49 50
000
ASUS43 KGLD 130459
RWRGLD

GOODLAND FORECAST AREA HOURLY WEATHER ROUNDUP
NATIONAL WEATHER SERVICE GOODLAND KS
1000 PM MST TUE DEC 12 2017

...OFFICIAL OBSERVATIONS...

CITY           SKY/WX    TMP DP  RH WIND       PRES   REMARKS
GOODLAND KS    CLEAR     40  15  36 W12       29.98F
HILL CITY KS   CLEAR     44  19  36 W12       29.91F
IMPERIAL NEB   CLOUDY    40  15  36 W9        29.94F
MCCOOK NEB     CLEAR     34  19  54 W10       29.90F
AKRON CO       CLOUDY    42  14  32 MISG      30.03F
BURLINGTON CO  CLEAR     37  14  38 W13       30.03F
LIMON CO       CLOUDY    29  11  47 N5        30.10F
$$

...UNOFFICIAL OBSERVATIONS...

CITY           SKY/WX    TMP DP  RH WIND       PRES   REMARKS
LENORA KS        N/A     50  32  50 W9          N/A
NORTON KS      CLEAR     39  14  35 SW12      29.88
TRENTON NEB      N/A     40  32  73 W5          N/A
KIT CARSON CO    N/A     40  14  34 MISG        N/A
YUMA CO        FAIR      34  14  44 W12       30.00F
$$



USA.gov is the U.S. government's official web portal to all federal, state and local government web resources and services.